Regional Weather Roundup
Issued by NWS

Home | Current Version | Previous Version | Text Only | Print | Product List | Glossary On
Versions: 1 2 3 4 5 6 7 8 9 10 11 12 13 14 15 16 17 18 19 20 21 22 23 24 25 26 27 28 29 30 31 32 33 34 35 36 37 38 39 40 41 42 43 44 45 46 47 48 49 50
000
ASUS43 KOAX 040902
RWRNE

WEATHER ROUNDUP FOR NEBRASKA
NATIONAL WEATHER SERVICE OMAHA NE
300 AM CST SUN DEC 04 2016

NOTES: SATELLITE DATA IS BEING USED TO AUGMENT CLOUD COVER ABOVE
       12000 FEET.
       "FAIR" INDICATES FEW OR NO CLOUDS BELOW 12,000 FEET WITH NO
       SIGNIFICANT WEATHER AND/OR OBSTRUCTIONS TO VISIBILITY.

  * THESE STATIONS DO NOT REPORT WEATHER SUCH AS RAIN...SNOW OR FOG.

NEZ001>004-019>022-054>056-041000-
NEBRASKA PANHANDLE

CITY           SKY/WX    TMP DP  RH WIND       PRES   REMARKS
SCOTTSBLUFF    CLEAR     22  14  71 NW10      30.01S WCI  11
ALLIANCE       CLOUDY    22  15  75 W10       29.97S WCI  11
CHADRON        CLOUDY    25  16  68 W10       29.98R WCI  15
KIMBALL        CLEAR     25  17  71 NW15      30.00S WCI  12
SIDNEY         CLEAR     26  14  60 NW16      30.01S WCI  14
$$

NEZ057>060-069>072-079>082-041000-
SOUTHWEST NEBRASKA

CITY           SKY/WX    TMP DP  RH WIND       PRES   REMARKS
NORTH PLATTE   PTCLDY    22  18  85 NW7       29.99S WCI  13
IMPERIAL       CLEAR     27  15  61 W13       30.01F WCI  16
LEXINGTON      FOG       27  26  95 W6        29.99S VSB 1   WCI  21
MCCOOK         PTCLDY    23  19  85 W10       30.02R WCI  12
OGALLALA       CLEAR     21  15  78 W3        30.01S
$$

NEZ005>010-023>029-035>040-094-041000-
NORTH CENTRAL NEBRASKA

CITY           SKY/WX    TMP DP  RH WIND       PRES   REMARKS
VALENTINE      CLEAR     22  18  85 SW6       29.93S WCI  14
AINSWORTH      CLEAR     28  22  78 W7        29.93R WCI  21
BROKEN BOW     MOCLDY    30  26  85 NW3       29.96S
O`NEILL        PTCLDY    31  29  92 W9        29.94S WCI  22
ORD            FOG       23  20  88 CALM      29.96S VSB 1/4
THEDFORD       PTCLDY    24  20  85 W6        29.96S WCI  17
$$

NEZ041-046>049-061>064-073>077-083>087-041000-
SOUTH CENTRAL NEBRASKA

CITY           SKY/WX    TMP DP  RH WIND       PRES   REMARKS
GRAND ISLAND   CLOUDY    32  32 100 W8        30.00S WCI  25
AURORA         CLOUDY    33  33 100 W10       29.99S WCI  24
HASTINGS       CLOUDY    33  31  92 W12       30.01S WCI  24
HEBRON         CLOUDY    32  32  99 W5        30.03S WCI  27
HOLDREGE       CLOUDY    32  32  99 W8        30.00R FOG     WCI  25
KEARNEY *      CLOUDY    34  28  80 W8        29.99S WCI  27
YORK           CLOUDY    32  32 100 CALM      30.00F
$$

NEZ011>018-030>034-042>045-041000-
NORTHEAST NEBRASKA

CITY           SKY/WX    TMP DP  RH WIND       PRES   REMARKS
NORFOLK        CLOUDY    33  30  88 SW8       29.97S WCI  26
ALBION         PTCLDY    33  31  92 W5        29.97S WCI  29
BLAIR          CLOUDY    33  33  98 SW7       30.01R FOG     WCI  27
FREMONT        CLOUDY    33  33 100 SW5       30.02R WCI  28
TEKAMAH        CLOUDY    33  31  92 SW6       30.02S FOG     WCI  28
WAYNE          CLOUDY    33  32  95 SW7       29.97F WCI  27
$$

NEZ050>053-065>068-078-088>093-041000-
SOUTHEAST NEBRASKA

CITY           SKY/WX    TMP DP  RH WIND       PRES   REMARKS
LINCOLN        CLOUDY    33  32  96 W7        30.04R WCI  27
OMAHA EPPLEY   CLOUDY    35  31  85 S7        30.03S WCI  29
BEATRICE       CLOUDY    34  33  99 W6        30.03S WCI  29
FALLS CITY     RAIN      40  40 100 SW7       30.04F
NEBRASKA CITY  LGT RAIN  36  36 100 SW7       30.03S WCI  30
PLATTSMOUTH    CLOUDY    34  32  92 S6        30.02S WCI  29
$$

NEZ044-045-051>053-067-041000-
OMAHA AREA

CITY           SKY/WX    TMP DP  RH WIND       PRES   REMARKS
OMAHA EPPLEY   CLOUDY    35  31  85 S7        30.03S WCI  29
BLAIR          CLOUDY    33  33  98 SW7       30.01R FOG     WCI  27
FREMONT        CLOUDY    33  33 100 SW5       30.02R WCI  28
MILLARD        CLOUDY    34  33  94 CALM      30.02S FOG
OFFUTT AFB     CLOUDY    34  34 100 SW5       30.03R WCI  30
PLATTSMOUTH    CLOUDY    34  32  92 S6        30.02S WCI  29
WAHOO          CLOUDY    33  32  96 W7        30.02S WCI  27
$$




USA.gov is the U.S. government's official web portal to all federal, state and local government web resources and services.